Weather History for Huntingburg, IN

Change the Weather History Date:

Tuesday, March 5, 2013

  Actual Average Record
Temperature  
Mean Temperature 38 °F -  
Max Temperature 46 °F 47 °F 69 °F (2004)
Min Temperature 30 °F 30 °F 17 °F (2014)
Degree Days  
Heating Degree Days 27    
Moisture  
Dew Point 33 °F    
Average Humidity 81    
Maximum Humidity 87    
Minimum Humidity 49    
Precipitation  
Precipitation 0.10 in - - ()
Sea Level Pressure  
Sea Level Pressure 29.82 in    
Wind  
Wind Speed 11 mph (West)    
Max Wind Speed 26 mph    
Max Gust Speed 41 mph    
Visibility 8 miles    
Events      
Averages and records for this station are not official NWS values.
T = Trace of Precipitation, MM = Missing Value Source: NWS Daily Summary

Daily Weather History Graph

Daily Weather History Graph

Search for Another Location

Airport:

Trip Planner

Search our weather history database for the weather conditions in past years. The results will help you decide how hot, cold, wet, or windy it might be!

Date:

Astronomy

Mar. 05, 2013 Rise Set
Actual Time 7:13 AM EST 6:45 PM EST
Civil Twilight 6:47 AM EST 7:11 PM EST
Nautical Twilight 6:16 AM EST 7:42 PM EST
Astronomical Twilight 5:46 AM EST 8:13 PM EST
Moon 2:21 AM EST (3/5) 12:27 PM EST (3/5)
Length of Visible Light 12h 24m
Length of Day
11h 31m
Last Quarter, 41% of the Moon is Illuminated
Mar 5
Last Quarter
Mar 11
New
Mar 19
First Quarter
Mar 27
Full
Apr 3
Last Quarter

Hourly Weather History & Observations

Time (EST) Temp. Windchill Dew Point Humidity Pressure Visibility Wind Dir Wind Speed Gust Speed Precip Events Conditions
12:15 AM 42.8 °F 37.5 °F 24.8 °F 49% 29.88 in 10.0 mi East 9.2 mph - N/A   Overcast
12:35 AM 42.8 °F 37.0 °F 24.8 °F 49% 29.87 in 10.0 mi East 10.4 mph - N/A   Overcast
12:55 AM 42.8 °F 37.5 °F 24.8 °F 49% 29.86 in 10.0 mi East 9.2 mph - N/A   Overcast
1:15 AM 42.8 °F 39.3 °F 26.6 °F 53% 29.86 in 10.0 mi East 5.8 mph - N/A   Overcast
2:55 AM 42.8 °F 38.6 °F 30.2 °F 61% 29.84 in 10.0 mi SE 6.9 mph - N/A   Overcast
3:15 AM 41.0 °F 37.1 °F 33.8 °F 76% 29.84 in 10.0 mi SE 5.8 mph - N/A   Overcast
3:35 AM 41.0 °F 37.1 °F 33.8 °F 76% 29.84 in 10.0 mi SE 5.8 mph - N/A   Overcast
3:55 AM 41.0 °F 34.7 °F 33.8 °F 76% 29.83 in 10.0 mi ESE 10.4 mph - N/A   Mostly Cloudy
4:15 AM 41.0 °F 35.8 °F 35.6 °F 81% 29.83 in 10.0 mi SE 8.1 mph - N/A   Mostly Cloudy
4:35 AM 39.2 °F 32.5 °F 35.6 °F 87% 29.82 in 10.0 mi ESE 10.4 mph - N/A   Overcast
4:55 AM 41.0 °F 35.2 °F 35.6 °F 81% 29.81 in 10.0 mi ESE 9.2 mph - N/A   Overcast
5:15 AM 41.0 °F 35.8 °F 37.4 °F 87% 29.81 in 10.0 mi ESE 8.1 mph - N/A   Overcast
5:35 AM 41.0 °F 36.4 °F 37.4 °F 87% 29.80 in 10.0 mi ESE 6.9 mph - N/A   Overcast
5:55 AM 41.0 °F 36.4 °F 37.4 °F 87% 29.80 in 10.0 mi East 6.9 mph - N/A   Overcast
6:15 AM 41.0 °F 35.8 °F 37.4 °F 87% 29.80 in 10.0 mi East 8.1 mph - N/A   Overcast
6:35 AM 41.0 °F 37.1 °F 37.4 °F 87% 29.80 in 10.0 mi East 5.8 mph - N/A   Overcast
6:55 AM 41.0 °F 37.1 °F 37.4 °F 87% 29.80 in 10.0 mi East 5.8 mph - N/A   Overcast
7:15 AM 42.8 °F 39.3 °F 37.4 °F 81% 29.80 in 10.0 mi ESE 5.8 mph - N/A   Overcast
7:35 AM 42.8 °F 38.6 °F 39.2 °F 87% 29.80 in 10.0 mi East 6.9 mph - N/A   Overcast
8:35 AM 42.8 °F 39.3 °F 39.2 °F 87% 29.79 in 10.0 mi East 5.8 mph - N/A   Overcast
8:55 AM 42.8 °F 38.6 °F 39.2 °F 87% 29.79 in 9.0 mi ESE 6.9 mph - N/A   Overcast
9:15 AM 44.6 °F 40.2 °F 39.2 °F 81% 29.78 in 9.0 mi ESE 8.1 mph - N/A   Overcast
9:35 AM 44.6 °F 40.7 °F 39.2 °F 81% 29.78 in 9.0 mi ESE 6.9 mph - N/A   Overcast
9:55 AM 44.6 °F 41.4 °F 41.0 °F 87% 29.76 in 9.0 mi ESE 5.8 mph - N/A   Overcast
10:15 AM 44.6 °F 41.4 °F 41.0 °F 87% 29.76 in 9.0 mi ESE 5.8 mph - N/A   Overcast
10:35 AM 44.6 °F 43.1 °F 41.0 °F 87% 29.75 in 9.0 mi SE 3.5 mph - N/A   Overcast
10:55 AM 44.6 °F 43.1 °F 41.0 °F 87% 29.74 in 9.0 mi ESE 3.5 mph - N/A   Overcast
11:35 AM 46.4 °F - 42.8 °F 87% 29.73 in 8.0 mi Calm Calm - N/A   Overcast
11:55 AM 46.4 °F - 42.8 °F 87% 29.72 in 9.0 mi Calm Calm - N/A   Overcast
12:15 PM 46.4 °F 45.2 °F 42.8 °F 87% 29.72 in 7.0 mi WNW 3.5 mph - N/A   Overcast
12:35 PM 46.4 °F 44.3 °F 42.8 °F 87% 29.72 in 5.0 mi NW 4.6 mph - N/A   Overcast
12:55 PM 46.4 °F 42.9 °F 42.8 °F 87% 29.71 in 4.0 mi NW 6.9 mph - N/A   Overcast
1:35 PM 44.6 °F 38.4 °F 41.0 °F 87% 29.69 in 7.0 mi WNW 12.7 mph - 0.01 in   Overcast
1:55 PM 42.8 °F 34.5 °F 39.2 °F 87% 29.70 in 8.0 mi WNW 18.4 mph - 0.01 in   Overcast
2:15 PM 41.0 °F 31.6 °F 35.6 °F 81% 29.70 in 7.0 mi West 20.7 mph 27.6 mph N/A   Overcast
2:35 PM 39.2 °F 28.3 °F 35.6 °F 87% 29.72 in 7.0 mi WNW 25.3 mph 31.1 mph 0.01 in   Overcast
2:55 PM 35.6 °F 24.2 °F 32.0 °F 87% 29.74 in 3.0 mi WNW 21.9 mph 26.5 mph 0.03 in   Overcast
3:15 PM 33.8 °F 22.5 °F 28.4 °F 81% 29.76 in 1.2 mi WNW 19.6 mph 29.9 mph 0.02 in   Overcast
3:55 PM 33.8 °F 22.8 °F 30.2 °F 87% 29.77 in 1.2 mi WNW 18.4 mph 23.0 mph 0.05 in   Overcast
4:15 PM 33.8 °F 21.3 °F 30.2 °F 87% 29.78 in 1.5 mi WNW 24.2 mph 34.5 mph 0.01 in   Overcast
4:35 PM 33.8 °F 22.5 °F 30.2 °F 87% 29.79 in 1.0 mi West 19.6 mph 24.2 mph 0.01 in   Overcast
4:55 PM 33.8 °F 22.5 °F 30.2 °F 87% 29.80 in 1.0 mi WNW 19.6 mph 28.8 mph 0.01 in   Overcast
5:15 PM 33.8 °F 21.9 °F 30.2 °F 87% 29.82 in 1.8 mi West 21.9 mph 27.6 mph N/A   Overcast
5:55 PM 33.8 °F 21.6 °F 28.4 °F 81% 29.84 in 9.0 mi WNW 23.0 mph 34.5 mph N/A   Overcast
6:15 PM 33.8 °F 21.3 °F 28.4 °F 81% 29.86 in 8.0 mi WNW 24.2 mph 36.8 mph N/A   Overcast
6:35 PM 33.8 °F 21.3 °F 28.4 °F 81% 29.86 in 4.0 mi WNW 24.2 mph 38.0 mph N/A   Overcast
6:55 PM 33.8 °F 22.5 °F 28.4 °F 81% 29.87 in 3.0 mi WNW 19.6 mph 31.1 mph N/A   Overcast
7:15 PM 33.8 °F 21.0 °F 28.4 °F 81% 29.88 in 7.0 mi West 25.3 mph 33.4 mph N/A   Overcast
7:35 PM 33.8 °F 20.8 °F 26.6 °F 75% 29.89 in 10.0 mi West 26.5 mph 41.4 mph N/A   Overcast
7:55 PM 32.0 °F 18.9 °F 26.6 °F 80% 29.89 in 7.0 mi WNW 24.2 mph 31.1 mph N/A   Overcast
8:15 PM 32.0 °F 20.1 °F 26.6 °F 80% 29.90 in 8.0 mi West 19.6 mph 26.5 mph N/A   Overcast
8:35 PM 32.0 °F 20.1 °F 26.6 °F 80% 29.90 in 8.0 mi West 19.6 mph 35.7 mph N/A   Overcast
8:55 PM 32.0 °F 18.9 °F 24.8 °F 75% 29.91 in 8.0 mi West 24.2 mph 38.0 mph N/A   Overcast
9:15 PM 30.2 °F 16.2 °F 24.8 °F 80% 29.90 in 8.0 mi WNW 25.3 mph 28.8 mph N/A   Overcast
9:35 PM 30.2 °F 18.5 °F 24.8 °F 80% 29.90 in 7.0 mi West 17.3 mph 31.1 mph N/A   Overcast
9:55 PM 30.2 °F 17.1 °F 24.8 °F 80% 29.90 in 8.0 mi West 21.9 mph 28.8 mph N/A   Overcast
10:15 PM 30.2 °F 18.9 °F 24.8 °F 80% 29.90 in 7.0 mi West 16.1 mph - N/A   Mostly Cloudy
10:35 PM 30.2 °F 17.4 °F 24.8 °F 80% 29.90 in 7.0 mi West 20.7 mph 25.3 mph N/A   Overcast
10:55 PM 30.2 °F 17.4 °F 24.8 °F 80% 29.90 in 7.0 mi West 20.7 mph 27.6 mph N/A   Overcast
11:15 PM 30.2 °F 17.1 °F 24.8 °F 80% 29.90 in 9.0 mi West 21.9 mph 29.9 mph N/A   Overcast
11:35 PM 30.2 °F 17.4 °F 24.8 °F 80% 29.89 in 8.0 mi West 20.7 mph 28.8 mph N/A   Overcast
11:55 PM 30.2 °F 15.9 °F 24.8 °F 80% 29.89 in 10.0 mi West 26.5 mph 32.2 mph N/A   Overcast